Вернуться в каталог

COSMOS 1275 DEB

АктивенPO
NORAD 17631·DEBRIS·🇷🇺 Russia

Запущен Jun 4, 1981 с Plesetsk Cosmodrome

Loading…

Ближайшие Пролёты (ближайшие 24 часа)

TLE

СвежийSource: Space-Track

Эпоха: Sep 14, 2026, 11:21 UTC

1 17631U 81053LA  26257.47340427  .00001112  00000-0  12267-2 0  9993
2 17631  82.9302 161.1456 0124635 198.4629 287.3635 13.67863759 53959

Отслеживайте COSMOS 1275 DEB в реальном времени с AllMySat

Download on the App Store